SCP
0 0 0 0 0 0 0 0 0 0 0 0 0 0 0 0 0 0 0 1 1 1 1 1 1 0 0 0 0 0 0 0 0 0 0 0 0 0 0 0 0 0 0
0 0 0 0 0 0 0 0 0 0 0 0 0 0 0 0 0 0 0 0 1 1 1 1 1 1 0 0 0 0 0 0 0 0 0 0 0 0 0 0 0 0 0
0 0 0 0 0 0 0 0 0 0 0 0 0 0 0 0 0 0 0 0 1 1 1 1 1 1 0 0 0 0 0 0 0 0 0 0 0 0 0 0 0 0 0
0 0 0 0 0 0 0 0 0 0 0 0 0 0 0 0 0 0 0 0 0 1 1 1 1 1 1 0 0 0 0 0 0 0 0 0 0 0 0 0 0 0 0
0 0 0 0 0 0 0 0 0 0 0 0 0 0 0 0 0 0 0 0 0 0 1 1 1 1 1 0 0 0 0 0 1 1 0 0 0 0 0 0 0 0 0
1 1 1 1 0 0 0 0 0 0 0 0 0 0 0 0 0 0 0 0 0 0 0 0 1 1 1 1 0 0 1 1 1 1 1 0 0 0 0 0 0 0 0
1 1 1 1 0 0 0 0 0 0 0 0 0 0 0 0 0 0 0 0 0 0 0 0 0 0 1 1 1 1 1 1 1 1 1 0 0 0 0 0 0 0 0
1 1 1 0 0 0 0 0 0 0 0 0 0 0 0 0 0 0 0 0 0 0 0 0 0 0 0 0 0 1 1 1 1 1 1 0 0 0 0 0 0 0 0
0 0 0 0 0 0 0 0 0 0 0 0 0 0 0 0 0 0 0 0 0 0 0 0 0 0 0 0 0 0 0 1 1 1 1 0 0 0 0 0 0 0 0
0 0 0 0 0 0 0 0 0 0 0 0 0 0 0 0 0 0 0 0 0 0 0 0 0 0 0 0 0 0 0 0 0 0 0 0 0 0 0 0 0 0 0
0 0 0 0 0 0 0 0 0 0 0 0 0 0 0 0 0 0 0 0 0 0 0 0 0 0 0 0 0 0 0 0 0 0 0 0 0 0 0 0 0 0 0
0 0 0 0 0 0 0 0 0 0 0 0 0 0 0 -0 -0 -0 0 0 0 0 0 0 0 0 0 0 0 0 0 0 0 0 0 0 0 0 0 0 0 0 0
0 0 0 0 0 0 0 0 0 0 0 0 0 0 0 -0 -0 -0 0 0 0 0 0 0 0 0 0 0 0 0 0 0 0 0 0 0 0 0 0 0 0 0 0
0 0 0 0 0 0 0 0 0 0 0 0 0 0 0 -0 -0 -0 0 0 0 0 0 0 0 0 0 0 0 0 0 0 0 0 0 0 0 0 0 0 0 0 0
0 0 0 0 0 0 0 0 0 0 0 0 0 0 0 0 0 0 0 0 0 0 0 0 0 0 0 0 0 0 0 0 0 0 0 0 0 0 0 0 0 0 0
0 0 0 0 0 0 0 0 0 0 0 0 0 0 0 0 0 0 0 0 0 0 0 0 0 0 0 0 0 0 0 0 0 0 0 0 0 0 0 0 0 0 0
0 0 0 0 0 0 0 0 0 0 0 0 0 0 0 0 0 0 0 0 0 0 0 0 0 0 0 0 0 0 0 0 0 0 0 0 0 0 0 0 0 0 0
0 0 0 0 0 0 0 0 0 0 0 0 0 0 0 0 0 0 0 0 0 0 0 0 0 0 0 0 0 0 0 0 0 0 0 0 0 0 0 0 0 0 0
0 0 0 0 0 0 0 0 0 0 0 0 0 0 0 0 0 0 0 0 0 0 0 0 0 0 0 0 0 0 0 0 0 0 0 0 0 0 0 0 0 0 0
0 0 0 0 0 0 0 0 0 0 0 0 0 0 0 0 0 0 0 0 0 0 0 0 0 0 0 0 0 0 0 0 0 0 0 0 0 0 0 0 0 0 0
0 0 0 0 0 0 0 0 0 0 0 0 0 0 0 0 0 0 0 0 0 0 0 0 0 0 0 0 0 0 0 0 0 0 0 0 0 0 0 0 0 0 0
0 0 0 0 0 0 0 0 0 0 0 0 0 0 0 0 0 0 0 0 0 0 0 0 0 0 0 0 0 0 0 0 0 0 0 0 0 0 0 0 0 0 0
0 0 0 0 0 0 0 0 0 0 0 0 0 0 0 0 0 0 0 0 0 0 0 0 0 0 0 0 0 0 0 0 0 0 0 0 0 0 0 0 0 0 0
0 0 0 0 0 0 0 0 0 0 0 0 0 0 0 0 0 0 0 0 0 0 0 0 0 0 0 0 0 0 0 0 0 0 0 0 0 0 0 0 0 0 0
0 0 0 0 0 0 0 0 0 0 0 0 0 0 0 0 0 0 0 0 0 0 0 0 0 0 0 0 0 0 0 0 0 0 0 0 0 0 0 0 0 0 0
0 0 0 0 0 0 0 0 0 0 0 0 0 0 0 0 0 0 0 0 0 0 0 0 0 0 0 0 0 0 0 0 0 0 -0 -0 0 0 0 0 0 0 0
Wind_Speed
4 4 3 3 3 3 3 4 4 5 5 6 6 6 6 7 7 6 6 14 15 16 18 17 15 15 14 14 14 15 16 16 16 16 17 18 19 20 20 19 18 16 15
4 4 3 3 4 4 4 4 5 5 4 5 5 5 6 6 7 7 6 8 12 13 14 16 16 14 14 14 14 16 16 16 16 14 15 17 19 19 21 20 19 18 16
5 4 3 3 4 4 4 4 5 4 4 5 5 6 5 6 5 6 6 5 7 11 14 16 15 15 15 15 15 15 14 13 14 14 15 16 17 20 22 22 20 19 18
5 4 4 4 4 3 3 3 4 4 4 4 4 5 5 5 6 6 6 5 5 5 8 14 17 16 15 16 15 15 14 14 14 15 16 16 17 20 22 22 21 21 19
3 3 4 4 4 4 4 3 4 3 3 5 5 5 4 5 6 6 6 5 6 5 5 8 13 14 15 16 16 16 15 15 14 14 15 15 16 19 21 22 22 21 20
4 4 4 4 4 4 4 4 5 5 5 4 4 3 4 5 5 6 6 4 4 5 5 6 6 8 14 15 15 15 16 16 16 15 13 12 15 18 21 23 23 22 22
4 4 4 5 5 5 6 6 4 5 5 3 2 2 4 5 5 5 4 3 3 5 5 5 5 4 6 11 13 14 15 15 16 16 13 11 12 16 20 23 24 23 23
4 5 6 6 7 6 6 6 6 4 4 5 3 2 1 3 4 2 3 3 3 4 5 4 4 5 4 4 7 12 13 13 15 16 13 11 11 14 20 24 25 25 25
4 6 7 6 7 6 6 7 8 9 6 4 5 4 3 4 2 2 2 3 2 3 5 4 4 5 5 4 5 6 8 8 12 13 11 11 11 12 18 25 26 27 27
5 6 7 6 5 4 5 6 6 5 6 5 5 5 4 4 3 2 4 3 1 4 4 3 4 6 5 3 6 6 6 7 8 11 12 12 11 12 17 25 28 30 29
5 6 5 3 3 3 4 6 6 7 7 5 4 3 3 3 3 4 4 3 2 4 3 5 5 5 5 4 3 3 4 6 8 10 13 14 13 13 17 24 30 32 30
3 5 5 3 3 3 4 3 2 4 4 3 2 3 4 4 4 4 4 3 4 4 3 4 5 6 4 4 3 3 4 4 6 9 13 15 16 16 15 23 31 30 30
2 4 4 3 2 2 2 2 2 2 3 2 3 3 3 4 3 3 2 2 3 2 3 4 4 3 3 2 1 1 1 4 7 8 9 9 10 15 19 25 28 27 27
2 3 2 2 2 2 2 2 2 2 2 3 4 2 2 3 1 2 2 2 2 1 1 5 3 2 2 2 1 1 2 3 5 6 4 2 2 14 19 21 21 23 24
2 3 2 1 1 1 2 2 2 2 2 3 2 2 2 3 3 3 3 4 4 1 3 4 4 2 2 2 1 2 2 2 4 4 2 4 6 9 11 11 14 16 19
2 2 2 1 1 1 2 1 0 1 1 2 3 1 1 2 4 4 1 2 3 3 6 3 3 2 1 1 2 3 3 3 2 2 5 7 8 9 10 13 14 15 14
3 2 3 2 1 1 1 2 2 3 2 3 4 3 1 1 1 3 3 1 3 5 4 3 2 2 2 2 2 2 3 2 2 5 6 8 9 9 11 13 14 13 12
2 2 2 2 3 3 2 3 4 3 2 3 3 1 2 4 4 4 3 3 2 2 3 3 2 2 4 3 3 3 3 3 3 4 6 8 10 11 12 13 13 12 12
3 3 2 1 1 2 2 3 3 1 2 1 2 4 4 4 3 3 3 3 2 2 2 3 3 3 3 2 2 1 1 1 3 4 6 7 7 7 8 8 7 7 8
5 4 4 4 4 4 4 4 4 5 4 4 4 5 4 3 3 4 4 4 4 4 3 2 2 2 3 2 2 2 2 1 2 2 5 6 8 10 10 10 9 8 9
5 5 4 5 5 5 5 4 4 5 4 4 5 5 5 8 8 5 4 5 6 4 3 3 3 2 2 1 1 1 2 1 1 0 1 3 4 6 6 9 10 12 12
5 5 5 5 5 5 7 6 5 5 5 6 5 5 6 8 8 7 6 5 5 4 4 3 3 3 3 2 2 1 1 1 1 0 2 1 3 4 4 5 9 11 15
4 5 5 5 4 5 6 6 6 5 6 6 5 5 6 7 7 6 8 9 8 8 5 2 2 3 3 4 2 2 1 0 1 1 2 2 3 3 3 2 6 10 11
4 4 5 4 4 6 7 7 6 6 6 5 4 4 6 8 10 8 7 7 6 6 6 3 2 2 2 3 2 1 1 1 1 2 2 0 1 2 3 2 3 4 6
4 4 4 4 6 7 7 5 5 4 5 4 4 5 6 7 9 8 7 7 7 7 6 5 6 6 4 3 4 3 3 3 2 2 1 1 0 0 2 2 2 3 4
5 5 5 4 6 8 10 10 4 3 3 3 4 5 8 8 9 12 8 7 8 9 8 6 5 5 5 5 3 2 1 1 0 1 1 0 0 1 1 1 2 3 2
Wind_Direction
220 225 214 228 218 208 237 232 232 235 232 236 231 229 238 234 233 230 231 239 234 231 234 239 239 241 249 251 250 250 251 249 247 242 237 234 224 206 193 198 199 194 188
220 220 203 210 216 215 229 225 223 227 233 231 233 234 236 240 238 232 231 236 239 229 228 236 237 236 244 250 249 247 248 248 248 245 242 237 227 210 195 195 198 194 190
219 213 213 218 221 227 238 238 235 220 235 229 238 253 253 254 245 243 240 233 233 230 224 232 237 233 239 248 251 254 258 259 258 255 249 240 226 212 198 193 193 192 190
216 215 221 234 245 254 245 233 240 233 236 233 234 245 244 245 253 244 243 239 225 224 227 233 233 232 235 247 255 259 258 258 255 254 251 245 230 212 199 195 192 189 185
230 204 230 235 237 240 243 235 233 220 246 249 246 245 244 239 241 244 245 243 242 225 212 227 228 227 235 245 251 255 256 259 261 258 252 248 232 216 203 197 192 186 181
205 196 227 240 240 245 240 231 239 224 227 238 248 260 260 254 239 241 246 247 252 252 229 214 222 227 235 240 246 252 253 255 260 260 256 256 236 215 203 196 190 184 176
242 233 236 240 228 227 232 223 223 227 230 212 206 273 267 259 249 237 243 256 270 279 259 225 209 215 230 235 242 242 244 248 256 260 254 252 241 217 204 195 189 180 171
293 266 242 239 235 228 238 238 224 221 216 179 169 167 274 303 284 242 218 230 261 289 280 252 223 224 229 235 238 240 246 248 254 258 251 246 239 218 201 195 187 176 168
302 286 266 247 238 225 227 227 227 220 223 198 192 174 176 225 290 295 244 214 223 259 266 262 257 259 254 251 253 249 261 262 260 258 254 250 236 222 202 194 184 171 167
325 307 284 264 253 241 236 231 220 203 189 202 202 208 196 184 177 281 291 257 240 243 246 248 257 268 266 249 252 247 260 264 259 261 266 261 240 224 202 192 181 170 169
329 331 319 315 314 294 267 245 216 206 195 190 185 184 211 218 205 203 256 300 314 270 244 229 245 273 276 253 241 242 251 271 269 273 274 262 243 230 209 191 177 171 169
328 344 342 351 8 1 338 297 246 229 214 197 192 190 187 189 207 200 232 272 271 266 269 240 248 253 245 229 217 238 285 293 290 287 276 259 238 225 204 187 175 174 173
325 316 338 354 40 49 33 30 22 344 358 323 259 230 222 221 202 202 193 240 263 302 325 291 260 237 211 178 207 261 350 333 313 311 290 267 238 200 172 177 179 175 176
296 313 333 14 37 27 19 34 29 11 2 319 300 315 324 323 315 231 177 192 265 311 308 279 297 244 206 169 180 116 57 344 353 354 313 273 181 160 166 178 175 173 174
325 359 356 331 4 25 45 56 359 51 10 318 319 33 15 329 293 252 210 195 181 199 269 260 257 239 206 166 122 115 106 39 33 19 55 91 89 108 127 145 159 163 161
284 316 344 347 338 59 58 28 352 3 35 299 304 324 302 331 315 303 246 176 156 195 244 240 259 250 222 125 136 133 126 107 117 130 121 109 109 112 121 128 134 141 157
271 288 292 290 299 322 2 307 310 296 270 265 272 280 268 129 315 352 351 343 192 197 215 252 247 232 208 183 155 155 144 168 210 194 157 140 141 148 151 146 150 155 166
290 274 279 307 322 319 334 305 293 294 265 251 240 202 45 49 27 7 337 331 336 267 221 246 260 231 221 198 185 183 173 182 222 211 179 169 167 169 170 170 171 173 166
67 46 58 56 27 30 28 353 338 358 2 54 67 51 38 42 26 354 348 344 325 303 259 241 256 241 236 201 194 185 172 181 242 186 165 180 182 173 179 188 178 165 166
92 71 57 53 45 33 26 19 37 47 51 58 56 58 45 29 13 354 359 358 351 355 342 308 283 274 253 235 171 161 159 204 237 163 165 174 178 181 183 188 192 193 192
85 73 61 46 33 29 9 7 47 50 50 68 55 43 27 10 3 353 359 358 352 357 347 344 335 337 325 325 258 162 139 169 31 301 118 135 158 168 178 189 196 200 196
97 82 70 50 27 10 1 52 72 67 54 62 49 27 13 3 354 4 351 348 341 357 359 349 339 349 350 339 336 3 146 126 124 217 111 150 153 160 168 180 197 205 195
112 104 89 61 30 2 13 65 77 74 67 65 59 41 27 12 17 30 26 20 7 15 25 24 22 348 339 347 342 348 15 133 215 168 108 159 177 163 151 173 204 215 207
101 102 85 64 38 3 17 78 82 82 72 62 61 59 47 30 24 34 37 18 358 351 351 3 23 332 325 333 344 335 356 47 34 19 48 159 169 164 153 182 234 208 195
98 103 95 64 51 15 23 89 92 83 75 45 16 20 36 44 22 31 40 17 6 355 343 330 289 273 277 348 3 5 26 41 4 343 4 94 153 166 171 184 197 217 217
105 101 89 64 60 37 26 35 60 92 74 37 14 12 26 38 40 35 34 19 16 349 346 7 0 335 328 340 14 66 72 73 57 296 266 114 339 50 330 138 154 172 183